ABY160 OMSJ-OEDF

Flight info

Callsign ABY160
Flight time 1h 2m
Altitude 34000
Route NABIX P699 ORMID M556 NARMI
Aircraft A320/M-SDE3FGHIRWY/LB1

Departure

Time 2026-04-24 07:16
Airport Sharjah International Airport (OMSJ)

Arrival

Time 2026-04-24 08:19
Airport King Fahd International Airport (OEDF)
Time Latitude Longitude Altitude Speed Heading
2026-04-24 06:58 25.31995 55.52544 112 ft 0 kts 212°
2026-04-24 07:09 25.31999 55.52547 115 ft 3 kts 212°
2026-04-24 07:09 25.32022 55.52563 115 ft 4 kts 212°
2026-04-24 07:10 25.32045 55.52579 113 ft 4 kts 212°
2026-04-24 07:10 25.32068 55.52595 111 ft 4 kts 212°
2026-04-24 07:10 25.32090 55.52611 115 ft 4 kts 211°
2026-04-24 07:10 25.32114 55.52624 114 ft 4 kts 193°
2026-04-24 07:11 25.32139 55.52625 112 ft 4 kts 150°
2026-04-24 07:11 25.32149 55.52616 113 ft 0 kts 122°
2026-04-24 07:13 25.32117 55.52671 115 ft 14 kts 122°
2026-04-24 07:13 25.32066 55.52760 112 ft 13 kts 122°
2026-04-24 07:13 25.32019 55.52843 112 ft 15 kts 122°
2026-04-24 07:13 25.31955 55.52954 112 ft 18 kts 122°
2026-04-24 07:14 25.31885 55.53075 111 ft 19 kts 122°
2026-04-24 07:14 25.31810 55.53206 115 ft 20 kts 122°
2026-04-24 07:14 25.31792 55.53355 113 ft 20 kts 71°
2026-04-24 07:14 25.31886 55.53428 113 ft 17 kts 27°
2026-04-24 07:15 25.31991 55.53493 114 ft 17 kts 30°
2026-04-24 07:15 25.32105 55.53492 118 ft 19 kts 320°
2026-04-24 07:15 25.32186 55.53355 116 ft 35 kts 302°
2026-04-24 07:15 25.32459 55.52881 117 ft 107 kts 302°
2026-04-24 07:16 25.32961 55.52005 117 ft 160 kts 302°
2026-04-24 07:16 25.33609 55.50891 569 ft 173 kts 305°
2026-04-24 07:16 25.34264 55.49771 1371 ft 176 kts 303°
2026-04-24 07:16 25.34941 55.48602 1799 ft 191 kts 304°
2026-04-24 07:17 25.35699 55.47283 1987 ft 218 kts 300°
2026-04-24 07:17 25.36536 55.45807 1992 ft 232 kts 300°
2026-04-24 07:17 25.37399 55.44285 1998 ft 235 kts 300°
2026-04-24 07:17 25.38269 55.42758 2008 ft 234 kts 300°
2026-04-24 07:18 25.39136 55.41231 2007 ft 235 kts 300°
2026-04-24 07:18 25.40003 55.39703 1999 ft 235 kts 300°
2026-04-24 07:18 25.40881 55.38180 1996 ft 235 kts 300°
2026-04-24 07:18 25.41773 55.36661 1991 ft 235 kts 301°
2026-04-24 07:19 25.42669 55.35138 1995 ft 233 kts 304°
2026-04-24 07:19 25.43540 55.33662 1995 ft 231 kts 305°
2026-04-24 07:19 25.44414 55.32179 1994 ft 230 kts 305°
2026-04-24 07:19 25.45286 55.30694 1991 ft 230 kts 302°
2026-04-24 07:20 25.46004 55.29108 1986 ft 231 kts 284°
2026-04-24 07:20 25.46209 55.27316 2060 ft 246 kts 266°
2026-04-24 07:20 25.46143 55.25360 2730 ft 258 kts 270°
2026-04-24 07:20 25.46101 55.23359 3447 ft 268 kts 271°
2026-04-24 07:21 25.46064 55.21271 4249 ft 274 kts 271°
2026-04-24 07:21 25.46028 55.19144 5094 ft 278 kts 270°
2026-04-24 07:21 25.45989 55.16989 5938 ft 281 kts 270°
2026-04-24 07:21 25.45950 55.14817 6767 ft 284 kts 269°
2026-04-24 07:22 25.45906 55.12616 7566 ft 288 kts 269°
2026-04-24 07:22 25.45858 55.10389 8381 ft 290 kts 268°
2026-04-24 07:22 25.45562 55.08178 9188 ft 292 kts 253°
2026-04-24 07:22 25.44743 55.06123 9985 ft 292 kts 238°
2026-04-24 07:23 25.43549 55.04242 10430 ft 309 kts 234°
2026-04-24 07:23 25.42261 55.02262 10597 ft 332 kts 234°
2026-04-24 07:23 25.40875 55.00138 10969 ft 346 kts 234°
2026-04-24 07:23 25.39457 54.97967 11642 ft 350 kts 234°
2026-04-24 07:24 25.38025 54.95774 12328 ft 353 kts 235°
2026-04-24 07:24 25.36586 54.93567 13058 ft 356 kts 235°
2026-04-24 07:24 25.35110 54.91352 13737 ft 358 kts 231°
2026-04-24 07:24 25.33323 54.89396 14378 ft 364 kts 222°
2026-04-24 07:25 25.31393 54.87559 15057 ft 367 kts 222°
2026-04-24 07:25 25.29445 54.85706 15692 ft 370 kts 222°
2026-04-24 07:25 25.27509 54.83859 16296 ft 373 kts 222°
2026-04-24 07:25 25.25537 54.81976 16895 ft 377 kts 222°
2026-04-24 07:26 25.23569 54.80048 17463 ft 379 kts 226°
2026-04-24 07:26 25.21924 54.77761 18019 ft 381 kts 239°
2026-04-24 07:26 25.20781 54.75110 18571 ft 384 kts 251°
2026-04-24 07:26 25.20199 54.72230 19089 ft 387 kts 264°
2026-04-24 07:27 25.20203 54.69246 19609 ft 391 kts 273°
2026-04-24 07:27 25.20389 54.66238 20139 ft 393 kts 273°
2026-04-24 07:27 25.20643 54.63215 20637 ft 397 kts 279°
2026-04-24 07:27 25.21413 54.60320 21105 ft 402 kts 291°
2026-04-24 07:28 25.22806 54.57629 21556 ft 408 kts 305°
2026-04-24 07:28 25.24766 54.55332 21988 ft 415 kts 318°
2026-04-24 07:28 25.27208 54.53584 22429 ft 422 kts 331°
2026-04-24 07:28 25.29845 54.52134 22853 ft 423 kts 326°
2026-04-24 07:29 25.32162 54.50145 23252 ft 422 kts 313°
2026-04-24 07:29 25.34046 54.47658 23654 ft 421 kts 302°
2026-04-24 07:29 25.35488 54.44845 24044 ft 421 kts 292°
2026-04-24 07:29 25.36483 54.41832 24418 ft 422 kts 285°
2026-04-24 07:30 25.37331 54.38725 24784 ft 424 kts 285°
2026-04-24 07:30 25.38189 54.35598 25164 ft 426 kts 285°
2026-04-24 07:30 25.39043 54.32457 25550 ft 427 kts 285°
2026-04-24 07:30 25.39896 54.29298 25949 ft 428 kts 285°
2026-04-24 07:31 25.40742 54.26125 26340 ft 430 kts 284°
2026-04-24 07:31 25.41559 54.22927 26731 ft 431 kts 284°
2026-04-24 07:31 25.42351 54.19723 27116 ft 432 kts 284°
2026-04-24 07:31 25.43131 54.16510 27481 ft 433 kts 284°
2026-04-24 07:32 25.43904 54.13319 27827 ft 434 kts 284°
2026-04-24 07:32 25.44692 54.10090 28172 ft 435 kts 284°
2026-04-24 07:32 25.45484 54.06845 28503 ft 436 kts 284°
2026-04-24 07:32 25.46271 54.03598 28848 ft 437 kts 284°
2026-04-24 07:33 25.47055 54.00336 29181 ft 438 kts 284°
2026-04-24 07:33 25.47838 53.97074 29509 ft 439 kts 283°
2026-04-24 07:33 25.48621 53.93804 29854 ft 438 kts 283°
2026-04-24 07:33 25.49401 53.90549 30321 ft 436 kts 283°
2026-04-24 07:34 25.50166 53.87360 30773 ft 433 kts 284°
2026-04-24 07:34 25.50938 53.84132 31200 ft 431 kts 284°
2026-04-24 07:34 25.51701 53.80922 31604 ft 430 kts 284°
2026-04-24 07:34 25.52462 53.77725 31991 ft 428 kts 284°
2026-04-24 07:35 25.53224 53.74534 32388 ft 427 kts 284°
2026-04-24 07:35 25.53984 53.71364 32752 ft 426 kts 284°
2026-04-24 07:35 25.54737 53.68231 33093 ft 425 kts 284°
2026-04-24 07:35 25.55494 53.65077 33481 ft 423 kts 284°
2026-04-24 07:36 25.56250 53.61925 33827 ft 422 kts 285°
2026-04-24 07:36 25.57000 53.58783 33919 ft 421 kts 284°
2026-04-24 07:36 25.58493 53.52504 33933 ft 420 kts 284°
2026-04-24 07:37 25.59973 53.46270 33934 ft 420 kts 284°
2026-04-24 07:37 25.61463 53.40007 33932 ft 420 kts 284°
2026-04-24 07:38 25.62931 53.33777 33935 ft 421 kts 284°
2026-04-24 07:38 25.64415 53.27495 33930 ft 421 kts 284°
2026-04-24 07:39 25.65895 53.21215 33933 ft 421 kts 284°
2026-04-24 07:39 25.67359 53.14965 33932 ft 421 kts 284°
2026-04-24 07:40 25.68828 53.08662 33932 ft 422 kts 284°
2026-04-24 07:40 25.70347 53.02360 33933 ft 422 kts 288°
2026-04-24 07:41 25.72891 52.96494 33933 ft 425 kts 296°
2026-04-24 07:41 25.75648 52.90692 33927 ft 425 kts 295°
2026-04-24 07:42 25.78376 52.84896 33927 ft 426 kts 295°
2026-04-24 07:42 25.81117 52.79057 33929 ft 426 kts 295°
2026-04-24 07:43 25.83877 52.73212 33929 ft 427 kts 295°
2026-04-24 07:43 25.86609 52.67401 33928 ft 427 kts 295°
2026-04-24 07:44 25.89361 52.61532 33927 ft 428 kts 295°
2026-04-24 07:44 25.92059 52.55629 33927 ft 428 kts 293°
2026-04-24 07:45 25.94656 52.49676 33927 ft 428 kts 293°
2026-04-24 07:45 25.97226 52.43754 33927 ft 428 kts 293°
2026-04-24 07:46 25.99850 52.37795 33926 ft 429 kts 293°
2026-04-24 07:46 26.02513 52.31848 33928 ft 429 kts 293°
2026-04-24 07:47 26.05191 52.25903 33931 ft 429 kts 293°
2026-04-24 07:47 26.07840 52.19990 33931 ft 429 kts 293°
2026-04-24 07:48 26.10486 52.14019 33928 ft 429 kts 293°
2026-04-24 07:48 26.13128 52.08042 33928 ft 430 kts 293°
2026-04-24 07:49 26.15778 52.02059 33930 ft 430 kts 293°
2026-04-24 07:49 26.18421 51.96116 33931 ft 431 kts 293°
2026-04-24 07:50 26.21107 51.90153 33947 ft 430 kts 293°
2026-04-24 07:50 26.23761 51.84164 33951 ft 430 kts 293°
2026-04-24 07:51 26.25944 51.79190 33949 ft 430 kts 292°
2026-04-24 07:51 26.29027 51.72234 33949 ft 430 kts 293°
2026-04-24 07:52 26.31242 51.67279 33956 ft 429 kts 293°
2026-04-24 07:52 26.33906 51.61320 33963 ft 428 kts 293°
2026-04-24 07:53 26.36470 51.55325 33803 ft 424 kts 286°
2026-04-24 07:53 26.37207 51.52167 33553 ft 420 kts 277°
2026-04-24 07:53 26.37470 51.48933 33304 ft 418 kts 269°
2026-04-24 07:54 26.37351 51.45693 33054 ft 419 kts 264°
2026-04-24 07:54 26.37145 51.42487 32806 ft 419 kts 265°
2026-04-24 07:54 26.36954 51.39230 32556 ft 420 kts 265°
2026-04-24 07:54 26.36769 51.35980 32307 ft 421 kts 265°
2026-04-24 07:55 26.36583 51.32709 32056 ft 422 kts 265°
2026-04-24 07:55 26.36392 51.29443 31806 ft 423 kts 265°
2026-04-24 07:55 26.36195 51.26169 31555 ft 423 kts 264°
2026-04-24 07:55 26.35992 51.22895 31305 ft 424 kts 264°
2026-04-24 07:56 26.35784 51.19607 31061 ft 425 kts 264°
2026-04-24 07:56 26.35572 51.16317 30807 ft 425 kts 264°
2026-04-24 07:56 26.35362 51.13057 30559 ft 427 kts 264°
2026-04-24 07:56 26.35152 51.09749 30307 ft 427 kts 264°
2026-04-24 07:57 26.34941 51.06432 30057 ft 428 kts 264°
2026-04-24 07:57 26.34732 51.03126 29801 ft 429 kts 264°
2026-04-24 07:57 26.34520 50.99807 29552 ft 429 kts 264°
2026-04-24 07:57 26.34306 50.96472 29300 ft 430 kts 264°
2026-04-24 07:58 26.34091 50.93150 29049 ft 431 kts 264°
2026-04-24 07:58 26.33874 50.89809 28796 ft 432 kts 264°
2026-04-24 07:58 26.33655 50.86463 28546 ft 433 kts 264°
2026-04-24 07:58 26.33440 50.83148 28297 ft 434 kts 264°
2026-04-24 07:59 26.33223 50.79791 28047 ft 433 kts 264°
2026-04-24 07:59 26.33005 50.76436 27797 ft 432 kts 264°
2026-04-24 07:59 26.32784 50.73086 27546 ft 431 kts 264°
2026-04-24 07:59 26.32563 50.69755 27296 ft 430 kts 264°
2026-04-24 08:00 26.32339 50.66426 27044 ft 429 kts 264°
2026-04-24 08:00 26.32119 50.63150 26797 ft 428 kts 264°
2026-04-24 08:00 26.31897 50.59849 26546 ft 427 kts 264°
2026-04-24 08:00 26.31676 50.56555 26296 ft 426 kts 264°
2026-04-24 08:01 26.31452 50.53257 26041 ft 425 kts 264°
2026-04-24 08:01 26.31230 50.49978 25794 ft 424 kts 264°
2026-04-24 08:01 26.31010 50.46703 25543 ft 423 kts 264°
2026-04-24 08:01 26.30789 50.43445 25295 ft 422 kts 264°
2026-04-24 08:02 26.30569 50.40189 25042 ft 421 kts 264°
2026-04-24 08:02 26.30348 50.36937 24792 ft 420 kts 264°
2026-04-24 08:02 26.30142 50.33687 24539 ft 420 kts 267°
2026-04-24 08:02 26.30271 50.30431 24288 ft 420 kts 274°
2026-04-24 08:03 26.30576 50.27226 23912 ft 418 kts 275°
2026-04-24 08:03 26.30879 50.24015 23160 ft 415 kts 275°
2026-04-24 08:03 26.31178 50.20826 22456 ft 411 kts 275°
2026-04-24 08:03 26.31470 50.17661 21776 ft 408 kts 275°
2026-04-24 08:04 26.31758 50.14523 21121 ft 405 kts 275°
2026-04-24 08:04 26.32038 50.11445 20498 ft 401 kts 275°
2026-04-24 08:04 26.32321 50.08360 19887 ft 397 kts 275°
2026-04-24 08:04 26.32599 50.05319 19317 ft 392 kts 275°
2026-04-24 08:05 26.32873 50.02301 18752 ft 388 kts 275°
2026-04-24 08:05 26.33142 49.99324 18228 ft 384 kts 275°
2026-04-24 08:05 26.33407 49.96377 17703 ft 380 kts 275°
2026-04-24 08:05 26.33664 49.93493 17195 ft 376 kts 275°
2026-04-24 08:06 26.33919 49.90604 16672 ft 373 kts 275°
2026-04-24 08:06 26.34175 49.87724 16135 ft 370 kts 275°
2026-04-24 08:06 26.34433 49.84862 15597 ft 368 kts 275°
2026-04-24 08:06 26.34689 49.82034 15054 ft 366 kts 275°
2026-04-24 08:07 26.34940 49.79243 14475 ft 365 kts 275°
2026-04-24 08:07 26.35193 49.76429 13869 ft 365 kts 275°
2026-04-24 08:07 26.35445 49.73599 13165 ft 367 kts 275°
2026-04-24 08:07 26.35695 49.70764 12460 ft 368 kts 274°
2026-04-24 08:08 26.35946 49.67916 11721 ft 370 kts 274°
2026-04-24 08:08 26.36159 49.65062 10975 ft 368 kts 269°
2026-04-24 08:08 26.35675 49.62321 10571 ft 355 kts 246°
2026-04-24 08:09 26.32557 49.58574 10334 ft 322 kts 206°
2026-04-24 08:09 26.30483 49.57911 10204 ft 312 kts 187°
2026-04-24 08:09 26.28344 49.58056 10079 ft 304 kts 171°
2026-04-24 08:09 26.26307 49.58534 9906 ft 292 kts 171°
2026-04-24 08:10 26.24380 49.59187 9199 ft 293 kts 154°
2026-04-24 08:10 26.22901 49.60745 8557 ft 299 kts 124°
2026-04-24 08:10 26.22303 49.62972 7888 ft 306 kts 92°
2026-04-24 08:10 26.22622 49.65280 7145 ft 307 kts 79°
2026-04-24 08:11 26.23109 49.67622 6557 ft 301 kts 78°
2026-04-24 08:11 26.23578 49.69789 6382 ft 280 kts 78°
2026-04-24 08:11 26.24020 49.71811 6248 ft 259 kts 78°
2026-04-24 08:11 26.24431 49.73722 6145 ft 248 kts 79°
2026-04-24 08:12 26.24851 49.75566 5915 ft 244 kts 76°
2026-04-24 08:12 26.25300 49.77327 5555 ft 229 kts 75°
2026-04-24 08:12 26.25741 49.78992 5168 ft 217 kts 74°
2026-04-24 08:12 26.26153 49.80538 4867 ft 200 kts 74°
2026-04-24 08:13 26.26523 49.81944 4581 ft 181 kts 73°
2026-04-24 08:13 26.26860 49.83233 4305 ft 166 kts 73°
2026-04-24 08:13 26.27203 49.84411 4073 ft 154 kts 62°
2026-04-24 08:13 26.27822 49.85361 3731 ft 152 kts 40°
2026-04-24 08:14 26.28691 49.85965 3450 ft 145 kts 19°
2026-04-24 08:14 26.29644 49.86166 3267 ft 138 kts
2026-04-24 08:14 26.30574 49.86006 3072 ft 135 kts 345°
2026-04-24 08:14 26.31480 49.85728 2893 ft 134 kts 348°
2026-04-24 08:15 26.32383 49.85451 2726 ft 137 kts 349°
2026-04-24 08:15 26.33321 49.85162 2516 ft 141 kts 349°
2026-04-24 08:15 26.34280 49.84868 2337 ft 145 kts 348°
2026-04-24 08:15 26.35266 49.84565 2138 ft 149 kts 347°
2026-04-24 08:16 26.36274 49.84255 1944 ft 151 kts 346°
2026-04-24 08:16 26.37290 49.83942 1744 ft 151 kts 343°
2026-04-24 08:16 26.38283 49.83636 1534 ft 149 kts 342°
2026-04-24 08:16 26.39270 49.83332 1363 ft 143 kts 344°
2026-04-24 08:17 26.40205 49.83044 1160 ft 136 kts 345°
2026-04-24 08:17 26.41113 49.82763 989 ft 134 kts 345°
2026-04-24 08:17 26.42013 49.82486 807 ft 134 kts 345°
2026-04-24 08:17 26.42906 49.82210 632 ft 133 kts 345°
2026-04-24 08:18 26.43798 49.81935 455 ft 133 kts 346°
2026-04-24 08:18 26.44699 49.81665 258 ft 135 kts 344°
2026-04-24 08:18 26.45597 49.81385 109 ft 133 kts 340°
2026-04-24 08:18 26.46410 49.81130 84 ft 104 kts 344°
2026-04-24 08:19 26.46824 49.81002 83 ft 29 kts 346°
2026-04-24 08:19 26.46939 49.80968 77 ft 14 kts 345°
2026-04-24 08:19 26.47012 49.80952 76 ft 8 kts 354°
2026-04-24 08:19 26.47067 49.80946 65 ft 7 kts 358°
2026-04-24 08:20 26.47141 49.80959 75 ft 12 kts 12°
2026-04-24 08:20 26.47167 49.80966 75 ft 0 kts 13°
2026-04-24 08:21 26.45385 49.81796 83 ft 0 kts 168°